Year,Month,Day,Hour,Minute,Value (Times are PST for temperature in C)
2015,03,25,00,00,8.20
2015,03,25,00,01,8.20
2015,03,25,00,02,8.20
2015,03,25,00,03,8.20
2015,03,25,00,04,8.20
2015,03,25,00,05,8.20
2015,03,25,00,06,8.20
2015,03,25,00,07,8.20
2015,03,25,00,08,8.20
2015,03,25,00,09,8.20
2015,03,25,00,10,8.20
2015,03,25,00,11,8.20
2015,03,25,00,12,8.20
2015,03,25,00,13,8.20
2015,03,25,00,14,8.30
2015,03,25,00,15,8.30
2015,03,25,00,16,8.30
2015,03,25,00,17,8.30
2015,03,25,00,18,8.30
2015,03,25,00,19,8.30
2015,03,25,00,20,8.30
2015,03,25,00,21,8.30
2015,03,25,00,22,8.30
2015,03,25,00,23,8.30
2015,03,25,00,24,8.30
2015,03,25,00,25,8.30
2015,03,25,00,26,8.30
2015,03,25,00,27,8.30
2015,03,25,00,28,8.30
2015,03,25,00,29,8.30
2015,03,25,00,30,8.30
2015,03,25,00,31,8.30
2015,03,25,00,32,8.30
2015,03,25,00,33,8.30
2015,03,25,00,34,8.30
2015,03,25,00,35,8.30
2015,03,25,00,36,8.30
2015,03,25,00,37,8.30
2015,03,25,00,38,8.40
2015,03,25,00,39,8.40
2015,03,25,00,40,8.40
2015,03,25,00,41,8.50
2015,03,25,00,42,8.50
2015,03,25,00,43,8.50
2015,03,25,00,44,8.50
2015,03,25,00,45,8.50
2015,03,25,00,46,8.50
2015,03,25,00,47,8.50
2015,03,25,00,48,8.50
2015,03,25,00,49,8.50
2015,03,25,00,50,8.50
2015,03,25,00,51,8.50
2015,03,25,00,52,8.50
2015,03,25,00,53,8.50
2015,03,25,00,54,8.50
2015,03,25,00,55,8.50
2015,03,25,00,56,8.50
2015,03,25,00,57,8.60
2015,03,25,00,58,8.60
2015,03,25,00,59,8.60
2015,03,25,01,00,8.60
2015,03,25,01,01,8.60
2015,03,25,01,02,8.60
2015,03,25,01,03,8.70
2015,03,25,01,04,8.70
2015,03,25,01,05,8.70
2015,03,25,01,06,8.70
2015,03,25,01,07,8.70
2015,03,25,01,08,8.70
2015,03,25,01,09,8.70
2015,03,25,01,10,8.70
2015,03,25,01,11,8.70
2015,03,25,01,12,8.70
2015,03,25,01,13,8.70
2015,03,25,01,14,8.70
2015,03,25,01,15,8.70
2015,03,25,01,16,8.70
2015,03,25,01,17,8.70
2015,03,25,01,18,8.70
2015,03,25,01,19,8.70
2015,03,25,01,20,8.70
2015,03,25,01,21,8.70
2015,03,25,01,22,8.70
2015,03,25,01,23,8.70
2015,03,25,01,24,8.70
2015,03,25,01,25,8.70
2015,03,25,01,26,8.70
2015,03,25,01,27,8.70
2015,03,25,01,28,8.70
2015,03,25,01,29,8.70
2015,03,25,01,30,8.70
2015,03,25,01,31,8.70
2015,03,25,01,32,8.70
2015,03,25,01,33,8.70
2015,03,25,01,34,8.70
2015,03,25,01,35,8.70
2015,03,25,01,36,8.70
2015,03,25,01,37,8.70
2015,03,25,01,38,8.70
2015,03,25,01,39,8.70
2015,03,25,01,40,8.70
2015,03,25,01,41,8.70
2015,03,25,01,42,8.70
2015,03,25,01,43,8.70
2015,03,25,01,44,8.60
2015,03,25,01,45,8.60
2015,03,25,01,46,8.60
2015,03,25,01,47,8.60
2015,03,25,01,48,8.60
2015,03,25,01,49,8.60
2015,03,25,01,50,8.50
2015,03,25,01,51,8.50
2015,03,25,01,52,8.50
2015,03,25,01,53,8.40
2015,03,25,01,54,8.40
2015,03,25,01,55,8.40
2015,03,25,01,56,8.30
2015,03,25,01,57,8.30
2015,03,25,01,58,8.30
2015,03,25,01,59,8.30
2015,03,25,02,00,8.20
2015,03,25,02,01,8.20
2015,03,25,02,02,8.20
2015,03,25,02,03,8.20
2015,03,25,02,04,8.20
2015,03,25,02,05,8.20
2015,03,25,02,06,8.20
2015,03,25,02,07,8.20
2015,03,25,02,08,8.20
2015,03,25,02,09,8.20
2015,03,25,02,10,8.20
2015,03,25,02,11,8.20
2015,03,25,02,12,8.20
2015,03,25,02,13,8.20
2015,03,25,02,14,8.20
2015,03,25,02,15,8.10
2015,03,25,02,16,8.10
2015,03,25,02,17,8.10
2015,03,25,02,18,8.10
2015,03,25,02,19,8.10
2015,03,25,02,20,8.10
2015,03,25,02,21,8.10
2015,03,25,02,22,8.10
2015,03,25,02,23,8.10
2015,03,25,02,24,8.10
2015,03,25,02,25,8.00
2015,03,25,02,26,8.10
2015,03,25,02,27,8.00
2015,03,25,02,28,8.00
2015,03,25,02,29,8.00
2015,03,25,02,30,7.90
2015,03,25,02,31,7.90
2015,03,25,02,32,7.90
2015,03,25,02,33,7.90
2015,03,25,02,34,7.90
2015,03,25,02,35,7.90
2015,03,25,02,36,7.90
2015,03,25,02,37,7.90
2015,03,25,02,38,7.90
2015,03,25,02,39,7.90
2015,03,25,02,40,7.90
2015,03,25,02,41,7.80
2015,03,25,02,42,7.80
2015,03,25,02,43,7.80
2015,03,25,02,44,7.80
2015,03,25,02,45,7.80
2015,03,25,02,46,7.80
2015,03,25,02,47,7.80
2015,03,25,02,48,7.80
2015,03,25,02,49,7.80
2015,03,25,02,50,7.80
2015,03,25,02,51,7.80
2015,03,25,02,52,7.80
2015,03,25,02,53,7.80
2015,03,25,02,54,7.80
2015,03,25,02,55,7.80
2015,03,25,02,56,7.80
2015,03,25,02,57,7.80
2015,03,25,02,58,7.80
2015,03,25,02,59,7.80
2015,03,25,03,00,7.80
2015,03,25,03,01,7.80
2015,03,25,03,02,7.80
2015,03,25,03,03,7.80
2015,03,25,03,04,7.80
2015,03,25,03,05,7.80
2015,03,25,03,06,7.80
2015,03,25,03,07,7.80
2015,03,25,03,08,7.80
2015,03,25,03,09,7.70
2015,03,25,03,10,7.70
2015,03,25,03,11,7.70
2015,03,25,03,12,7.70
2015,03,25,03,13,7.70
2015,03,25,03,14,7.70
2015,03,25,03,15,7.70
2015,03,25,03,16,7.70
2015,03,25,03,17,7.70
2015,03,25,03,18,7.70
2015,03,25,03,19,7.70
2015,03,25,03,20,7.70
2015,03,25,03,21,7.70
2015,03,25,03,22,7.70
2015,03,25,03,23,7.70
2015,03,25,03,24,7.70
2015,03,25,03,25,7.70
2015,03,25,03,26,7.70
2015,03,25,03,27,7.70
2015,03,25,03,28,7.70
2015,03,25,03,29,7.70
2015,03,25,03,30,7.60
2015,03,25,03,31,7.60
2015,03,25,03,32,7.60
2015,03,25,03,33,7.60
2015,03,25,03,34,7.60
2015,03,25,03,35,7.60
2015,03,25,03,36,7.60
2015,03,25,03,37,7.50
2015,03,25,03,38,7.50
2015,03,25,03,39,7.50
2015,03,25,03,40,7.50
2015,03,25,03,41,7.50
2015,03,25,03,42,7.50
2015,03,25,03,43,7.40
2015,03,25,03,44,7.40
2015,03,25,03,45,7.40
2015,03,25,03,46,7.40
2015,03,25,03,47,7.40
2015,03,25,03,48,7.40
2015,03,25,03,49,7.40
2015,03,25,03,50,7.30
2015,03,25,03,51,7.30
2015,03,25,03,52,7.30
2015,03,25,03,53,7.30
2015,03,25,03,54,7.30
2015,03,25,03,55,7.30
2015,03,25,03,56,7.30
2015,03,25,03,57,7.30
2015,03,25,03,58,7.30
2015,03,25,03,59,7.30
2015,03,25,04,00,7.30
2015,03,25,04,01,7.30
2015,03,25,04,02,7.30
2015,03,25,04,03,7.30
2015,03,25,04,04,7.30
2015,03,25,04,05,7.30
2015,03,25,04,06,7.30
2015,03,25,04,07,7.20
2015,03,25,04,08,7.20
2015,03,25,04,09,7.20
2015,03,25,04,10,7.20
2015,03,25,04,11,7.20
2015,03,25,04,12,7.20
2015,03,25,04,13,7.20
2015,03,25,04,14,7.30
2015,03,25,04,15,7.30
2015,03,25,04,16,7.30
2015,03,25,04,17,7.30
2015,03,25,04,18,7.30
2015,03,25,04,19,7.30
2015,03,25,04,20,7.30
2015,03,25,04,21,7.30
2015,03,25,04,22,7.30
2015,03,25,04,23,7.30
2015,03,25,04,24,7.40
2015,03,25,04,25,7.40
2015,03,25,04,26,7.40
2015,03,25,04,27,7.40
2015,03,25,04,28,7.40
2015,03,25,04,29,7.40
2015,03,25,04,30,7.40
2015,03,25,04,31,7.40
2015,03,25,04,32,7.40
2015,03,25,04,33,7.40
2015,03,25,04,34,7.40
2015,03,25,04,35,7.40
2015,03,25,04,36,7.50
2015,03,25,04,37,7.40
2015,03,25,04,38,7.50
2015,03,25,04,39,7.50
2015,03,25,04,40,7.50
2015,03,25,04,41,7.40
2015,03,25,04,42,7.40
2015,03,25,04,43,7.40
2015,03,25,04,44,7.40
2015,03,25,04,45,7.40
2015,03,25,04,46,7.40
2015,03,25,04,47,7.40
2015,03,25,04,48,7.50
2015,03,25,04,49,7.40
2015,03,25,04,50,7.40
2015,03,25,04,51,7.40
2015,03,25,04,52,7.40
2015,03,25,04,53,7.40
2015,03,25,04,54,7.40
2015,03,25,04,55,7.40
2015,03,25,04,56,7.40
2015,03,25,04,57,7.40
2015,03,25,04,58,7.40
2015,03,25,04,59,7.40
2015,03,25,05,00,7.40
2015,03,25,05,01,7.50
2015,03,25,05,02,7.50
2015,03,25,05,03,7.50
2015,03,25,05,04,7.50
2015,03,25,05,05,7.50
2015,03,25,05,06,7.50
2015,03,25,05,07,7.50
2015,03,25,05,08,7.50
2015,03,25,05,09,7.60
2015,03,25,05,10,7.60
2015,03,25,05,11,7.60
2015,03,25,05,12,7.60
2015,03,25,05,13,7.60
2015,03,25,05,14,7.60
2015,03,25,05,15,7.50
2015,03,25,05,16,7.50
2015,03,25,05,17,7.50
2015,03,25,05,18,7.50
2015,03,25,05,19,7.60
2015,03,25,05,20,7.60
2015,03,25,05,21,7.60
2015,03,25,05,22,7.60
2015,03,25,05,23,7.60
2015,03,25,05,24,7.60
2015,03,25,05,25,7.70
2015,03,25,05,26,7.70
2015,03,25,05,27,7.70
2015,03,25,05,28,7.70
2015,03,25,05,29,7.70
2015,03,25,05,30,7.70
2015,03,25,05,31,7.70
2015,03,25,05,32,7.70
2015,03,25,05,33,7.70
2015,03,25,05,34,7.70
2015,03,25,05,35,7.80
2015,03,25,05,36,7.80
2015,03,25,05,37,7.80
2015,03,25,05,38,7.80
2015,03,25,05,39,7.80
2015,03,25,05,40,7.80
2015,03,25,05,41,7.80
2015,03,25,05,42,7.80
2015,03,25,05,43,7.80
2015,03,25,05,44,7.70
2015,03,25,05,45,7.70
2015,03,25,05,46,7.70
2015,03,25,05,47,7.70
2015,03,25,05,48,7.70
2015,03,25,05,49,7.70
2015,03,25,05,50,7.80
2015,03,25,05,51,7.80
2015,03,25,05,52,7.80
2015,03,25,05,53,7.80
2015,03,25,05,54,7.80
2015,03,25,05,55,7.80
2015,03,25,05,56,7.80
2015,03,25,05,57,7.80
2015,03,25,05,58,7.80
2015,03,25,05,59,7.80
2015,03,25,06,00,7.80
2015,03,25,06,01,7.70
2015,03,25,06,02,7.70
2015,03,25,06,03,7.70
2015,03,25,06,04,7.70
2015,03,25,06,05,7.60
2015,03,25,06,06,7.60
2015,03,25,06,07,7.60
2015,03,25,06,08,7.50
2015,03,25,06,09,7.50
2015,03,25,06,10,7.50
2015,03,25,06,11,7.50
2015,03,25,06,12,7.50
2015,03,25,06,13,7.40
2015,03,25,06,14,7.40
2015,03,25,06,15,7.40
2015,03,25,06,16,7.40
2015,03,25,06,17,7.40
2015,03,25,06,18,7.40
2015,03,25,06,19,7.40
2015,03,25,06,20,7.40
2015,03,25,06,21,7.40
2015,03,25,06,22,7.40
2015,03,25,06,23,7.40
2015,03,25,06,24,7.40
2015,03,25,06,25,7.40
2015,03,25,06,26,7.40
2015,03,25,06,27,7.40
2015,03,25,06,28,7.40
2015,03,25,06,29,7.40
2015,03,25,06,30,7.40
2015,03,25,06,31,7.40
2015,03,25,06,32,7.40
2015,03,25,06,33,7.40
2015,03,25,06,34,7.40
2015,03,25,06,35,7.40
2015,03,25,06,36,7.40
2015,03,25,06,37,7.40
2015,03,25,06,38,7.40
2015,03,25,06,39,7.40
2015,03,25,06,40,7.40
2015,03,25,06,41,7.40
2015,03,25,06,42,7.40
2015,03,25,06,43,7.40
2015,03,25,06,44,7.40
2015,03,25,06,45,7.40
2015,03,25,06,46,7.40
2015,03,25,06,47,7.40
2015,03,25,06,48,7.40
2015,03,25,06,49,7.40
2015,03,25,06,50,7.40
2015,03,25,06,51,7.40
2015,03,25,06,52,7.40
2015,03,25,06,53,7.30
2015,03,25,06,54,7.30
2015,03,25,06,55,7.30
2015,03,25,06,56,7.30
2015,03,25,06,57,7.30
2015,03,25,06,58,7.40
2015,03,25,06,59,7.30
2015,03,25,07,00,7.30
2015,03,25,07,01,7.30
2015,03,25,07,02,7.30
2015,03,25,07,03,7.30
2015,03,25,07,04,7.30
2015,03,25,07,05,7.30
2015,03,25,07,06,7.30
2015,03,25,07,07,7.30
2015,03,25,07,08,7.30
2015,03,25,07,09,7.30
2015,03,25,07,10,7.30
2015,03,25,07,11,7.30
2015,03,25,07,12,7.30
2015,03,25,07,13,7.30
2015,03,25,07,14,7.30
2015,03,25,07,15,7.30
2015,03,25,07,16,7.40
2015,03,25,07,17,7.40
2015,03,25,07,18,7.40
2015,03,25,07,19,7.40
2015,03,25,07,20,7.40
2015,03,25,07,21,7.40
2015,03,25,07,22,7.40
2015,03,25,07,23,7.40
2015,03,25,07,24,7.40
2015,03,25,07,25,7.40
2015,03,25,07,26,7.40
2015,03,25,07,27,7.40
2015,03,25,07,28,7.40
2015,03,25,07,29,7.40
2015,03,25,07,30,7.40
2015,03,25,07,31,7.40
2015,03,25,07,32,7.40
2015,03,25,07,33,7.40
2015,03,25,07,34,7.40
2015,03,25,07,35,7.40
2015,03,25,07,36,7.40
2015,03,25,07,37,7.40
2015,03,25,07,38,7.40
2015,03,25,07,39,7.40
2015,03,25,07,40,7.40
2015,03,25,07,41,7.40
2015,03,25,07,42,7.40
2015,03,25,07,43,7.40
2015,03,25,07,44,7.40
2015,03,25,07,45,7.40
2015,03,25,07,46,7.40
2015,03,25,07,47,7.40
2015,03,25,07,48,7.40
2015,03,25,07,49,7.40
2015,03,25,07,50,7.40
2015,03,25,07,51,7.40
2015,03,25,07,52,7.40
2015,03,25,07,53,7.40
2015,03,25,07,54,7.40
2015,03,25,07,55,7.40
2015,03,25,07,56,7.40
2015,03,25,07,57,7.40
2015,03,25,07,58,7.40
2015,03,25,07,59,7.40
2015,03,25,08,00,7.40
2015,03,25,08,01,7.40
2015,03,25,08,02,7.40
2015,03,25,08,03,7.40
2015,03,25,08,04,7.40
2015,03,25,08,05,7.40
2015,03,25,08,06,7.40
2015,03,25,08,07,7.40
2015,03,25,08,08,7.40
2015,03,25,08,09,7.40
2015,03,25,08,10,7.40
2015,03,25,08,11,7.40
2015,03,25,08,12,7.40
2015,03,25,08,13,7.40
2015,03,25,08,14,7.40
2015,03,25,08,15,7.40
2015,03,25,08,16,7.40
2015,03,25,08,17,7.40
2015,03,25,08,18,7.40
2015,03,25,08,19,7.40
2015,03,25,08,20,7.40
2015,03,25,08,21,7.30
2015,03,25,08,22,7.30
2015,03,25,08,23,7.30
2015,03,25,08,24,7.20
2015,03,25,08,25,7.20
2015,03,25,08,26,7.20
2015,03,25,08,27,7.20
2015,03,25,08,28,7.10
2015,03,25,08,29,7.10
2015,03,25,08,30,7.10
2015,03,25,08,31,7.10
2015,03,25,08,32,7.10
2015,03,25,08,33,7.10
2015,03,25,08,34,7.10
2015,03,25,08,35,7.10
2015,03,25,08,36,7.10
2015,03,25,08,37,7.10
2015,03,25,08,38,7.10
2015,03,25,08,39,7.10
2015,03,25,08,40,7.10
2015,03,25,08,41,7.10
2015,03,25,08,42,7.10
2015,03,25,08,43,7.10
2015,03,25,08,44,7.10
2015,03,25,08,45,7.10
2015,03,25,08,46,7.10
2015,03,25,08,47,7.10
2015,03,25,08,48,7.10
2015,03,25,08,49,7.10
2015,03,25,08,50,7.10
2015,03,25,08,51,7.10
2015,03,25,08,52,7.10
2015,03,25,08,53,7.10
2015,03,25,08,54,7.20
2015,03,25,08,55,7.20
2015,03,25,08,56,7.20
2015,03,25,08,57,7.20
2015,03,25,08,58,7.20
2015,03,25,08,59,7.20
2015,03,25,09,00,7.30
2015,03,25,09,01,7.30
2015,03,25,09,02,7.30
2015,03,25,09,03,7.30
2015,03,25,09,04,7.30
2015,03,25,09,05,7.30
2015,03,25,09,06,7.30
2015,03,25,09,07,7.30
2015,03,25,09,08,7.30
2015,03,25,09,09,7.30
2015,03,25,09,10,7.30
2015,03,25,09,11,7.30
2015,03,25,09,12,7.40
2015,03,25,09,13,7.40
2015,03,25,09,14,7.40
2015,03,25,09,15,7.40
2015,03,25,09,16,7.40
2015,03,25,09,17,7.40
2015,03,25,09,18,7.40
2015,03,25,09,19,7.40
2015,03,25,09,20,7.40
2015,03,25,09,21,7.40
2015,03,25,09,22,7.40
2015,03,25,09,23,7.40
2015,03,25,09,24,7.50
2015,03,25,09,25,7.40
2015,03,25,09,26,7.50
2015,03,25,09,27,7.50
2015,03,25,09,28,7.50
2015,03,25,09,29,7.50
2015,03,25,09,30,7.50
2015,03,25,09,31,7.50
2015,03,25,09,32,7.50
2015,03,25,09,33,7.50
2015,03,25,09,34,7.50
2015,03,25,09,35,7.50
2015,03,25,09,36,7.60
2015,03,25,09,37,7.60
2015,03,25,09,38,7.60
2015,03,25,09,39,7.60
2015,03,25,09,40,7.60
2015,03,25,09,41,7.60
2015,03,25,09,42,7.60
2015,03,25,09,43,7.60
2015,03,25,09,44,7.60
2015,03,25,09,45,7.60
2015,03,25,09,46,7.60
2015,03,25,09,47,7.60
2015,03,25,09,48,7.60
2015,03,25,09,49,7.60
2015,03,25,09,50,7.60
2015,03,25,09,51,7.70
2015,03,25,09,52,7.70
2015,03,25,09,53,7.70
2015,03,25,09,54,7.70
2015,03,25,09,55,7.70
2015,03,25,09,56,7.70
2015,03,25,09,57,7.70
2015,03,25,09,58,7.70
2015,03,25,09,59,7.70
2015,03,25,10,00,7.70
2015,03,25,10,01,7.70
2015,03,25,10,02,7.70
2015,03,25,10,03,7.70
2015,03,25,10,04,7.70
2015,03,25,10,05,7.70
2015,03,25,10,06,7.70
2015,03,25,10,07,7.70
2015,03,25,10,08,7.70
2015,03,25,10,09,7.70
2015,03,25,10,10,7.70
2015,03,25,10,11,7.70
2015,03,25,10,12,7.70
2015,03,25,10,13,7.70
2015,03,25,10,14,7.70
2015,03,25,10,15,7.70
2015,03,25,10,16,7.70
2015,03,25,10,17,7.70
2015,03,25,10,18,7.70
2015,03,25,10,19,7.70
2015,03,25,10,20,7.70
2015,03,25,10,21,7.70
2015,03,25,16,34,8.80
2015,03,25,16,35,8.80
2015,03,25,16,36,8.80
2015,03,25,16,37,8.80
2015,03,25,16,38,8.80
2015,03,25,16,39,8.80
2015,03,25,16,40,8.80
2015,03,25,16,41,8.80
2015,03,25,16,42,8.80
2015,03,25,16,43,8.80
2015,03,25,16,44,8.90
2015,03,25,16,45,8.90
2015,03,25,16,46,8.90
2015,03,25,16,47,8.90
2015,03,25,16,48,8.90
2015,03,25,16,49,8.90
2015,03,25,16,50,8.90
2015,03,25,16,51,8.90
2015,03,25,16,52,8.90
2015,03,25,16,53,8.90
2015,03,25,16,54,8.90
2015,03,25,16,55,8.90
2015,03,25,16,56,8.90
2015,03,25,16,57,8.90
2015,03,25,16,58,8.90
2015,03,25,16,59,8.90
2015,03,25,17,00,8.90
2015,03,25,17,01,8.90
2015,03,25,17,02,8.90
2015,03,25,17,03,8.90
2015,03,25,17,04,8.90
2015,03,25,17,05,8.90
2015,03,25,17,06,8.90
2015,03,25,17,07,8.90
2015,03,25,17,08,8.90
2015,03,25,17,09,8.90
2015,03,25,17,10,8.90
2015,03,25,17,11,8.90
2015,03,25,17,12,9.00
2015,03,25,17,13,9.00
2015,03,25,17,14,8.90
2015,03,25,17,15,8.90
2015,03,25,17,16,9.00
2015,03,25,17,17,9.00
2015,03,25,17,18,9.00
2015,03,25,17,19,9.00
2015,03,25,17,20,9.00
2015,03,25,17,21,9.00
2015,03,25,17,22,9.00
2015,03,25,17,23,9.00
2015,03,25,17,24,9.00
2015,03,25,17,25,9.00
2015,03,25,17,26,9.00
2015,03,25,17,27,9.00
2015,03,25,17,28,9.10
2015,03,25,17,29,9.10
2015,03,25,17,30,9.10
2015,03,25,17,31,9.10
2015,03,25,17,32,9.10
2015,03,25,17,33,9.10
2015,03,25,17,34,9.10
2015,03,25,17,35,9.00
2015,03,25,17,36,9.10
2015,03,25,17,37,9.00
2015,03,25,17,38,9.00
2015,03,25,17,39,9.00
2015,03,25,17,40,9.00
2015,03,25,17,41,9.00
2015,03,25,17,42,9.00
2015,03,25,17,43,9.00
2015,03,25,17,44,9.00
2015,03,25,17,45,9.00
2015,03,25,17,46,9.00
2015,03,25,17,47,9.00
2015,03,25,17,48,9.00
2015,03,25,17,49,9.00
2015,03,25,17,50,8.90
2015,03,25,17,51,8.90
2015,03,25,17,52,8.90
2015,03,25,17,53,8.90
2015,03,25,17,54,8.90
2015,03,25,17,55,8.90
2015,03,25,17,56,8.90
2015,03,25,17,57,8.90
2015,03,25,17,58,8.90
2015,03,25,17,59,8.90
2015,03,25,18,00,8.90
2015,03,25,18,01,8.90
2015,03,25,18,02,8.90
2015,03,25,18,03,8.90
2015,03,25,18,04,8.90
2015,03,25,18,05,8.90
2015,03,25,18,06,8.90
2015,03,25,18,07,8.90
2015,03,25,18,08,8.90
2015,03,25,18,09,8.90
2015,03,25,18,10,9.00
2015,03,25,18,11,9.00
2015,03,25,18,12,9.00
2015,03,25,18,13,8.90
2015,03,25,18,14,9.00
2015,03,25,18,15,8.90
2015,03,25,18,16,9.00
2015,03,25,18,17,9.00
2015,03,25,18,18,8.90
2015,03,25,18,19,8.90
2015,03,25,18,20,8.90
2015,03,25,18,21,8.90
2015,03,25,18,22,8.90
2015,03,25,18,23,9.00
2015,03,25,18,24,9.00
2015,03,25,18,25,9.00
2015,03,25,18,26,9.00
2015,03,25,18,27,9.00
2015,03,25,18,28,9.00
2015,03,25,18,29,9.00
2015,03,25,18,30,9.00
2015,03,25,18,31,8.90
2015,03,25,18,32,8.90
2015,03,25,18,33,8.90
2015,03,25,18,34,8.90
2015,03,25,18,35,8.90
2015,03,25,18,36,8.90
2015,03,25,18,37,8.90
2015,03,25,18,38,8.90
2015,03,25,18,39,8.90
2015,03,25,18,40,8.80
2015,03,25,18,41,8.80
2015,03,25,18,42,8.80
2015,03,25,18,43,8.80
2015,03,25,18,44,8.80
2015,03,25,18,45,8.80
2015,03,25,18,46,8.80
2015,03,25,18,47,8.80
2015,03,25,18,48,8.80
2015,03,25,18,49,8.80
2015,03,25,18,50,8.80
2015,03,25,18,51,8.80
2015,03,25,18,52,8.80
2015,03,25,18,53,8.80
2015,03,25,18,54,8.80
2015,03,25,18,55,8.80
2015,03,25,18,56,8.80
2015,03,25,18,57,8.80
2015,03,25,18,58,8.80
2015,03,25,18,59,8.80
2015,03,25,19,00,8.80
2015,03,25,19,01,8.80
2015,03,25,19,02,8.80
2015,03,25,19,03,8.80
2015,03,25,19,04,8.80
2015,03,25,19,05,8.80
2015,03,25,19,06,8.80
2015,03,25,19,07,8.80
2015,03,25,19,08,8.80
2015,03,25,19,09,8.80
2015,03,25,19,10,8.80
2015,03,25,19,11,8.80
2015,03,25,19,12,8.80
2015,03,25,19,13,8.80
2015,03,25,19,14,8.80
2015,03,25,19,15,8.80
2015,03,25,19,16,8.70
2015,03,25,19,17,8.70
2015,03,25,19,18,8.70
2015,03,25,19,19,8.70
2015,03,25,19,20,8.70
2015,03,25,19,21,8.70
2015,03,25,19,22,8.70
2015,03,25,19,23,8.70
2015,03,25,19,24,8.70
2015,03,25,19,25,8.70
2015,03,25,19,26,8.70
2015,03,25,19,27,8.70
2015,03,25,19,28,8.60
2015,03,25,19,29,8.60
2015,03,25,19,30,8.60
2015,03,25,19,31,8.60
2015,03,25,19,32,8.60
2015,03,25,19,33,8.60
2015,03,25,19,34,8.60
2015,03,25,19,35,8.60
2015,03,25,19,36,8.60
2015,03,25,19,37,8.60
2015,03,25,19,38,8.60
2015,03,25,19,39,8.60
2015,03,25,19,40,8.60
2015,03,25,19,41,8.60
2015,03,25,19,42,8.60
2015,03,25,19,43,8.60
2015,03,25,19,44,8.60
2015,03,25,19,45,8.60
2015,03,25,19,46,8.60
2015,03,25,19,47,8.60
2015,03,25,19,48,8.60
2015,03,25,19,49,8.60
2015,03,25,19,50,8.60
2015,03,25,19,51,8.50
2015,03,25,19,52,8.50
2015,03,25,19,53,8.50
2015,03,25,19,54,8.50
2015,03,25,19,55,8.50
2015,03,25,19,56,8.50
2015,03,25,19,57,8.50
2015,03,25,19,58,8.50
2015,03,25,19,59,8.50
2015,03,25,20,00,8.50
2015,03,25,20,01,8.50
2015,03,25,20,02,8.50
2015,03,25,20,03,8.50
2015,03,25,20,04,8.50
2015,03,25,20,05,8.50
2015,03,25,20,06,8.50
2015,03,25,20,07,8.50
2015,03,25,20,08,8.50
2015,03,25,20,09,8.50
2015,03,25,20,10,8.50
2015,03,25,20,11,8.50
2015,03,25,20,12,8.50
2015,03,25,20,13,8.50
2015,03,25,20,14,8.50
2015,03,25,20,15,8.50
2015,03,25,20,16,8.50
2015,03,25,20,17,8.50
2015,03,25,20,18,8.50
2015,03,25,20,19,8.50
2015,03,25,20,20,8.50
2015,03,25,20,21,8.50
2015,03,25,20,22,8.50
2015,03,25,20,23,8.50
2015,03,25,20,24,8.50
2015,03,25,20,25,8.60
2015,03,25,20,26,8.60
2015,03,25,20,27,8.60
2015,03,25,20,28,8.60
2015,03,25,20,29,8.60
2015,03,25,20,30,8.60
2015,03,25,20,31,8.60
2015,03,25,20,32,8.60
2015,03,25,20,33,8.60
2015,03,25,20,34,8.60
2015,03,25,20,35,8.60
2015,03,25,20,36,8.60
2015,03,25,20,37,8.60
2015,03,25,20,38,8.60
2015,03,25,20,39,8.60
2015,03,25,20,40,8.60
2015,03,25,20,41,8.60
2015,03,25,20,42,8.60
2015,03,25,20,43,8.60
2015,03,25,20,44,8.70
2015,03,25,20,45,8.70
2015,03,25,20,46,8.70
2015,03,25,20,47,8.70
2015,03,25,20,48,8.70
2015,03,25,20,49,8.70
2015,03,25,20,50,8.70
2015,03,25,20,51,8.70
2015,03,25,20,52,8.70
2015,03,25,20,53,8.70
2015,03,25,20,54,8.70
2015,03,25,20,55,8.80
2015,03,25,20,56,8.80
2015,03,25,20,57,8.80
2015,03,25,20,58,8.80
2015,03,25,20,59,8.80
2015,03,25,21,00,8.80
2015,03,25,21,01,8.80
2015,03,25,21,02,8.80
2015,03,25,21,03,8.80
2015,03,25,21,04,8.80
2015,03,25,21,05,8.80
2015,03,25,21,06,8.70
2015,03,25,21,07,8.70
2015,03,25,21,08,8.70
2015,03,25,21,09,8.70
2015,03,25,21,10,8.70
2015,03,25,21,11,8.70
2015,03,25,21,12,8.70
2015,03,25,21,13,8.70
2015,03,25,21,14,8.70
2015,03,25,21,15,8.70
2015,03,25,21,16,8.70
2015,03,25,21,17,8.70
2015,03,25,21,18,8.70
2015,03,25,21,19,8.70
2015,03,25,21,20,8.70
2015,03,25,21,21,8.70
2015,03,25,21,22,8.70
2015,03,25,21,23,8.60
2015,03,25,21,24,8.60
2015,03,25,21,25,8.60
2015,03,25,21,26,8.60
2015,03,25,21,27,8.60
2015,03,25,21,28,8.60
2015,03,25,21,29,8.60
2015,03,25,21,30,8.60
2015,03,25,21,31,8.60
2015,03,25,21,32,8.60
2015,03,25,21,33,8.70
2015,03,25,21,34,8.70
2015,03,25,21,35,8.70
2015,03,25,21,36,8.70
2015,03,25,21,37,8.70
2015,03,25,21,38,8.70
2015,03,25,21,39,8.70
2015,03,25,21,40,8.70
2015,03,25,21,41,8.70
2015,03,25,21,42,8.70
2015,03,25,21,43,8.70
2015,03,25,21,44,8.70
2015,03,25,21,45,8.70
2015,03,25,21,46,8.80
2015,03,25,21,47,8.80
2015,03,25,21,48,8.80
2015,03,25,21,49,8.80
2015,03,25,21,50,8.80
2015,03,25,21,51,8.80
2015,03,25,21,52,8.80
2015,03,25,21,53,8.90
2015,03,25,21,54,8.90
2015,03,25,21,55,8.90
2015,03,25,21,56,8.90
2015,03,25,21,57,8.90
2015,03,25,21,58,8.90
2015,03,25,21,59,8.90
2015,03,25,22,00,8.90
2015,03,25,22,01,9.00
2015,03,25,22,02,9.00
2015,03,25,22,03,9.00
2015,03,25,22,04,9.00
2015,03,25,22,05,9.10
2015,03,25,22,06,9.10
2015,03,25,22,07,9.10
2015,03,25,22,08,9.10
2015,03,25,22,09,9.10
2015,03,25,22,10,9.10
2015,03,25,22,11,9.10
2015,03,25,22,12,9.10
2015,03,25,22,13,9.10
2015,03,25,22,14,9.10
2015,03,25,22,15,9.10
2015,03,25,22,16,9.10
2015,03,25,22,17,9.20
2015,03,25,22,18,9.20
2015,03,25,22,19,9.20
2015,03,25,22,20,9.20
2015,03,25,22,21,9.20
2015,03,25,22,22,9.20
2015,03,25,22,23,9.20
2015,03,25,22,24,9.20
2015,03,25,22,25,9.20
2015,03,25,22,26,9.20
2015,03,25,22,27,9.30
2015,03,25,22,28,9.30
2015,03,25,22,29,9.30
2015,03,25,22,30,9.40
2015,03,25,22,31,9.40
2015,03,25,22,32,9.50
2015,03,25,22,33,9.50
2015,03,25,22,34,9.60
2015,03,25,22,35,9.60
2015,03,25,22,36,9.60
2015,03,25,22,37,9.60
2015,03,25,22,38,9.60
2015,03,25,22,39,9.70
2015,03,25,22,40,9.70
2015,03,25,22,41,9.70
2015,03,25,22,42,9.70
2015,03,25,22,43,9.70
2015,03,25,22,44,9.70
2015,03,25,22,45,9.70
2015,03,25,22,46,9.70
2015,03,25,22,47,9.70
2015,03,25,22,48,9.70
2015,03,25,22,49,9.70
2015,03,25,22,50,9.70
2015,03,25,22,51,9.70
2015,03,25,22,52,9.70
2015,03,25,22,53,9.70
2015,03,25,22,54,9.60
2015,03,25,22,55,9.60
2015,03,25,22,56,9.60
2015,03,25,22,57,9.60
2015,03,25,22,58,9.50
2015,03,25,22,59,9.60
2015,03,25,23,00,9.50
2015,03,25,23,01,9.50
2015,03,25,23,02,9.50
2015,03,25,23,03,9.50
2015,03,25,23,04,9.50
2015,03,25,23,05,9.40
2015,03,25,23,06,9.40
2015,03,25,23,07,9.40
2015,03,25,23,08,9.40
2015,03,25,23,09,9.40
2015,03,25,23,10,9.40
2015,03,25,23,11,9.40
2015,03,25,23,12,9.40
2015,03,25,23,13,9.40
2015,03,25,23,14,9.40
2015,03,25,23,15,9.40
2015,03,25,23,16,9.40
2015,03,25,23,17,9.40
2015,03,25,23,18,9.40
2015,03,25,23,19,9.40
2015,03,25,23,20,9.40
2015,03,25,23,21,9.40
2015,03,25,23,22,9.40
2015,03,25,23,23,9.40
2015,03,25,23,24,9.40
2015,03,25,23,25,9.40
2015,03,25,23,26,9.40
2015,03,25,23,27,9.40
2015,03,25,23,28,9.40
2015,03,25,23,29,9.40
2015,03,25,23,30,9.40
2015,03,25,23,31,9.40
2015,03,25,23,32,9.40
2015,03,25,23,33,9.40
2015,03,25,23,34,9.40
2015,03,25,23,35,9.40
2015,03,25,23,36,9.40
2015,03,25,23,37,9.30
2015,03,25,23,38,9.40
2015,03,25,23,39,9.40
2015,03,25,23,40,9.30
2015,03,25,23,41,9.30
2015,03,25,23,42,9.30
2015,03,25,23,43,9.30
2015,03,25,23,44,9.40
2015,03,25,23,45,9.40
2015,03,25,23,46,9.40
2015,03,25,23,47,9.40
2015,03,25,23,48,9.40
2015,03,25,23,49,9.40
2015,03,25,23,50,9.40
2015,03,25,23,51,9.40
2015,03,25,23,52,9.40
2015,03,25,23,53,9.40
2015,03,25,23,54,9.40
2015,03,25,23,55,9.40
2015,03,25,23,56,9.40
2015,03,25,23,57,9.40
2015,03,25,23,58,9.40
2015,03,25,23,59,9.40
